McCook, NE

1:04 AM CST on December 12, 2019 (GMT -0600)
McCook Municipal

Weather History for KMCK - September, 2019

Change the Weather History Date:

Saturday, September 28, 2019

  Actual Average Record
Temperature  
Mean Temperature 56 °F 59 °F  
Max Temperature 62 °F 74 °F 96 °F (1953)
Min Temperature 50 °F 43 °F 29 °F (1951)
Degree Days  
Heating Degree Days 9    
Growing Degree Days 6 (Base 50)    
Moisture  
Dew Point 50 °F    
Average Humidity 84    
Maximum Humidity 100    
Minimum Humidity 55    
Precipitation  
Precipitation 0.00 in 0.05 in 1.55 in (1973)
Month to date precipitation 0.64 1.35  
Year to date precipitation 17.97 19.06  
Sea Level Pressure  
Sea Level Pressure 29.95 in    
Wind  
Wind Speed 10 mph ()    
Max Wind Speed 16 mph    
Max Gust Speed 22 mph    
Visibility 6.6 miles    
Events      
T = Trace of Precipitation, MM = Missing Value Source: Averaged Metar Reports

Daily Weather History Graph

Daily Weather History Graph

Search for Another Location

Airport or City:

Astronomy

Sep. 28, 2019 Rise Set
Actual Time 7:35 AM CDT 7:29 PM CDT
Civil Twilight 7:08 AM CDT 7:56 PM CDT
Nautical Twilight 6:36 AM CDT 8:28 PM CDT
Astronomical Twilight 6:04 AM CDT 9:00 PM CDT
Moon 7:14 AM CDT (9/28) 7:56 PM CDT (9/28)
Length of Visible Light 12h 48m
Length of Day
11h 54m
Waning Crescent, 0% of the Moon is Illuminated
Sep 28
Waning Crescent
Sep 28
New
Oct 5
First Quarter
Oct 13
Full
Oct 21
Last Quarter

Hourly Weather History & Observations

Time (CDT) Temp. Dew Point Humidity Pressure Visibility Wind Dir Wind Speed Gust Speed Precip Events Conditions
12:53 AM 55.9 °F 46.0 °F 69% 29.92 in 10.0 mi East 12.7 mph - N/A   Clear
1:53 AM 55.0 °F 46.0 °F 72% 29.96 in 10.0 mi ENE 8.1 mph - N/A   Scattered Clouds
2:53 AM 53.1 °F 46.0 °F 77% 29.97 in 10.0 mi North 8.1 mph - N/A   Partly Cloudy
3:53 AM 51.1 °F 46.0 °F 83% 29.95 in 10.0 mi NE 10.4 mph - N/A   Clear
4:53 AM 52.0 °F 48.0 °F 86% 29.97 in 10.0 mi NNE 10.4 mph - N/A   Overcast
5:53 AM 51.1 °F 46.9 °F 86% 29.98 in 10.0 mi East 9.2 mph - N/A   Mostly Cloudy
6:53 AM 51.1 °F 46.0 °F 83% 30.00 in 10.0 mi ENE 6.9 mph - N/A   Overcast
7:53 AM 50.0 °F 45.0 °F 83% 30.02 in 10.0 mi ENE 9.2 mph - N/A   Overcast
8:53 AM 51.1 °F 44.1 °F 77% 30.06 in 10.0 mi East 9.2 mph - N/A   Overcast
9:53 AM 54.0 °F 44.1 °F 69% 30.04 in 10.0 mi East 12.7 mph - N/A   Overcast
10:53 AM 55.0 °F 43.0 °F 64% 30.05 in 10.0 mi East 12.7 mph - N/A   Overcast
11:53 AM 59.0 °F 43.0 °F 55% 30.03 in 10.0 mi East 10.4 mph - N/A   Overcast
12:53 PM 57.9 °F 44.1 °F 60% 30.01 in 10.0 mi East 11.5 mph - N/A   Overcast
1:53 PM 61.0 °F 46.0 °F 58% 29.96 in 10.0 mi ESE 13.8 mph 21.9 mph N/A   Overcast
2:53 PM 62.1 °F 48.0 °F 60% 29.93 in 10.0 mi East 13.8 mph - N/A   Overcast
3:53 PM 60.1 °F 50.0 °F 69% 29.92 in 10.0 mi East 12.7 mph 21.9 mph N/A   Overcast
4:53 PM 60.1 °F 50.0 °F 69% 29.91 in 10.0 mi ESE 16.1 mph - N/A   Overcast
5:53 PM 57.9 °F 51.1 °F 78% 29.91 in 10.0 mi East 13.8 mph - N/A   Overcast
6:17 PM 55.9 °F 51.1 °F 84% 29.93 in 6.0 mi ESE 11.5 mph - N/A   Haze
6:25 PM 55.0 °F 52.0 °F 89% 29.93 in 3.0 mi ESE 13.8 mph - N/A   Overcast
6:31 PM 55.0 °F 53.1 °F 93% 29.93 in 1.8 mi ESE 12.7 mph - N/A   Overcast
6:53 PM 54.0 °F 53.1 °F 97% 29.93 in 1.2 mi ESE 12.7 mph - N/A   Overcast
7:07 PM 54.0 °F 53.1 °F 97% 29.93 in 1.2 mi ESE 10.4 mph - N/A   Overcast
7:39 PM 54.0 °F 53.1 °F 97% 29.93 in 2.5 mi ESE 9.2 mph - N/A   Overcast
7:53 PM 54.0 °F 53.1 °F 97% 29.93 in 2.5 mi SE 9.2 mph - N/A   Overcast
8:00 PM 54.0 °F 53.1 °F 97% 29.93 in 3.0 mi ESE 11.5 mph - N/A   Overcast
8:34 PM 54.0 °F 53.1 °F 97% 29.93 in 2.5 mi SE 8.1 mph - N/A   Overcast
8:50 PM 53.6 °F 53.6 °F 100% 29.93 in 4.0 mi ESE 8.1 mph - N/A   Overcast
8:53 PM 54.0 °F 53.1 °F 97% 29.92 in 5.0 mi ESE 8.1 mph - N/A   Overcast
9:22 PM 55.0 °F 53.1 °F 93% 29.93 in 7.0 mi ESE 8.1 mph - N/A   Overcast
9:53 PM 54.0 °F 53.1 °F 97% 29.91 in 3.0 mi East 9.2 mph - N/A   Overcast
10:01 PM 54.0 °F 54.0 °F 100% 29.93 in 2.5 mi ESE 10.4 mph - N/A   Overcast
10:23 PM 55.0 °F 54.0 °F 96% 29.92 in 3.0 mi ESE 11.5 mph - N/A   Overcast
10:53 PM 55.0 °F 54.0 °F 96% 29.89 in 6.0 mi East 12.7 mph - N/A   Overcast
11:19 PM 55.0 °F 54.0 °F 96% 29.90 in 2.0 mi East 11.5 mph - N/A   Overcast
11:53 PM 55.0 °F 54.0 °F 96% 29.88 in 2.0 mi ESE 10.4 mph - N/A   Overcast